Location: Calvatone
(45.1167°N, 10.4333°E)
Time: 10:03:20
(UTC+00:00)

SL-16 R/B - Pass Details

Date: 28 January 2023
Orbit: 842 x 846 km, 71.0° (Epoch: 28 March)

Event Time Altitude Azimuth Distance (km) Brightness Sun altitude
Rises 19:57:42 0° 242° (WSW) 3,391 5.9 -38.3°
Reaches altitude 10° 20:00:33 10° 255° (WSW) 2,461 5.2 -38.8°
Enters shadow 20:04:27 25° 298° (WNW) 1,644 4.1 -39.5°
